Location: DaVinci Observatory
(43.1080°N, 78.6453°W)
Time: 05:15:55
(UTC-05:00)

Vanguard 3 - All Passes

Search period start: 14 December 2017 00:00
Search period end: 24 December 2017 00:00
Orbit: 509 x 3263 km, 33.3° (Epoch: 13 December)

Date Brightness Start Highest point End Pass type
(mag) Time Alt. Az. Time Alt. Az. Time Alt. Az.
14 Dec - 12:39:17 10° SSW 12:42:06 17° S 12:44:35 10° SE daylight
14 Dec - 14:50:10 10° SW 14:52:52 19° S 14:55:44 10° SE daylight
14 Dec - 17:02:22 10° SW 17:03:49 11° SSW 17:05:24 10° S daylight
15 Dec - 11:26:03 10° SSW 11:28:51 14° SSE 11:31:13 10° SE daylight
15 Dec - 13:36:47 10° SW 13:39:48 20° S 13:42:35 10° SE daylight
15 Dec - 15:48:27 10° SW 15:50:33 14° SSW 15:52:52 10° SSE daylight
16 Dec - 10:13:09 10° S 10:15:24 12° SSE 10:17:22 10° SE daylight
16 Dec - 12:23:08 10° SW 12:26:40 20° S 12:29:35 10° SE daylight
16 Dec - 14:34:50 10° SW 14:37:26 18° S 14:40:03 10° SE daylight
17 Dec - 11:09:14 10° SW 11:13:24 19° S 11:16:36 10° SE daylight
17 Dec - 13:21:04 10° SW 13:24:23 21° S 13:27:16 10° SE daylight
17 Dec - 15:33:50 10° SW 15:35:05 11° SSW 15:36:23 10° S daylight
18 Dec - 09:55:19 10° SSW 09:59:54 17° SSE 10:03:23 10° SE daylight
18 Dec - 12:06:58 10° SW 12:11:15 24° S 12:14:33 10° SE daylight
18 Dec - 14:19:27 10° SW 14:22:00 16° SSW 14:24:24 10° SSE daylight
19 Dec - 08:41:52 10° S 08:46:06 14° SSE 08:49:31 10° SE daylight
19 Dec - 10:52:32 10° SW 10:57:56 24° S 11:01:46 10° ESE daylight
19 Dec - 13:05:14 10° WSW 13:08:57 22° S 13:12:00 10° SE daylight
20 Dec - 07:30:46 10° SSE 07:32:00 10° SSE 07:33:11 10° SSE daylight
20 Dec - 09:37:58 10° SW 09:44:22 22° SSE 09:48:48 10° ESE daylight
20 Dec - 11:50:43 10° WSW 11:55:49 27° S 11:59:28 10° ESE daylight
20 Dec - 14:04:01 10° WSW 14:06:31 15° SSW 14:08:48 10° SSE daylight
21 Dec - 08:23:36 10° SSW 08:30:28 19° SSE 08:35:24 10° ESE daylight
21 Dec - 10:35:50 10° SW 10:42:27 29° S 10:46:50 10° ESE daylight
21 Dec - 12:49:19 10° WSW 12:53:30 23° SSW 12:56:44 10° SE daylight
22 Dec - 07:10:03 10° S 07:16:13 15° SSE 07:21:03 10° SE visible
22 Dec - 09:20:44 10° SW 09:28:46 28° S 09:33:59 10° ESE daylight
22 Dec - 11:34:24 10° WSW 11:40:21 30° S 11:44:22 10° SE daylight
22 Dec - 13:48:29 10° WSW 13:50:59 15° SSW 13:53:11 10° SSE daylight
23 Dec - 05:59:42 10° SSE 06:01:40 10° SSE 06:03:31 10° SE visible
23 Dec - 08:05:44 10° SSW 08:14:44 25° SSE 08:20:46 10° ESE daylight
23 Dec - 10:19:05 10° WSW 10:26:54 34° S 10:31:48 10° ESE daylight
23 Dec - 12:33:18 10° WSW 12:38:00 24° SSW 12:41:28 10° SE daylight
